Scottsdale, AZ

9:55 AM MST on April 23, 2017 (GMT -0700)
Scottsdale

Weather History for KSDL - May, 2014

Change the Weather History Date:

Sunday, May 18, 2014

  Actual Average Record
Temperature  
Mean Temperature 85 °F -  
Max Temperature 98 °F 91 °F 102 °F (2008)
Min Temperature 72 °F 66 °F 62 °F (2011)
Cooling Degree Days 20    
Growing Degree Days 35 (Base 50)    
Moisture  
Dew Point 20 °F    
Average Humidity 9    
Maximum Humidity 14    
Minimum Humidity 6    
Precipitation  
Precipitation 0.00 in - - ()
Sea Level Pressure  
Sea Level Pressure 29.70 in    
Wind  
Wind Speed 3 mph (SSW)    
Max Wind Speed 10 mph    
Max Gust Speed 20 mph    
Visibility 10 miles    
Events      
Averages and records for this station are not official NWS values.
T = Trace of Precipitation, MM = Missing Value Source: NWS Daily Summary

Daily Weather History Graph

Daily Weather History Graph

Search for Another Location

Airport or City:

Trip Planner

Search our weather history database for the weather conditions in past years. The results will help you decide how hot, cold, wet, or windy it might be!

Date:

Astronomy

May. 18, 2014 Rise Set
Actual Time 5:24 AM MST 7:23 PM MST
Civil Twilight 4:57 AM MST 7:51 PM MST
Nautical Twilight 4:23 AM MST 8:25 PM MST
Astronomical Twilight 3:47 AM MST 9:01 PM MST
Moon 11:18 PM MST (5/18) 9:15 AM MST (5/18)
Length of Visible Light 14h 54m
Length of Day
13h 58m
Waning Gibbous, 80% of the Moon is Illuminated
May 18
Waning Gibbous
May 21
Last Quarter
May 28
New
Jun 5
First Quarter
Jun 12
Full

Hourly Weather History & Observations

Time (MST) Temp. Dew Point Humidity Pressure Visibility Wind Dir Wind Speed Gust Speed Precip Events Conditions
12:53 AM 80.1 °F 24.1 °F 13% 29.71 in 10.0 mi Calm Calm - N/A   Clear
1:53 AM 78.1 °F 23.0 °F 13% 29.71 in 10.0 mi Calm Calm - N/A   Clear
2:53 AM 75.9 °F 19.9 °F 12% 29.72 in 10.0 mi Calm Calm - N/A   Clear
3:53 AM 75.9 °F 17.1 °F 11% 29.71 in 10.0 mi SE 3.5 mph - N/A   Clear
4:53 AM 75.0 °F 15.1 °F 10% 29.72 in 10.0 mi SE 3.5 mph - N/A   Clear
5:53 AM 72.0 °F 19.9 °F 14% 29.74 in 10.0 mi Calm Calm - N/A   Clear
6:53 AM 77.0 °F 19.0 °F 11% 29.75 in 10.0 mi SSE 3.5 mph - N/A   Clear
7:53 AM 81.0 °F 18.0 °F 10% 29.75 in 10.0 mi SE 6.9 mph - N/A   Clear
8:53 AM 84.0 °F 16.0 °F 8% 29.76 in 10.0 mi SSE 6.9 mph - N/A   Clear
9:53 AM 87.1 °F 18.0 °F 8% 29.75 in 10.0 mi South 10.4 mph - N/A   Clear
10:53 AM 90.0 °F 16.0 °F 7% 29.74 in 10.0 mi SSE 9.2 mph - N/A   Clear
11:53 AM 91.9 °F 19.0 °F 7% 29.74 in 10.0 mi Variable 4.6 mph - N/A   Clear
12:53 PM 93.9 °F 18.0 °F 6% 29.72 in 10.0 mi Variable 4.6 mph 19.6 mph N/A   Clear
1:53 PM 95.0 °F 19.9 °F 7% 29.70 in 10.0 mi Variable 3.5 mph - N/A   Clear
2:53 PM 96.1 °F 21.0 °F 7% 29.69 in 10.0 mi WSW 8.1 mph - N/A   Clear
3:53 PM 96.1 °F 18.0 °F 6% 29.67 in 10.0 mi West 5.8 mph - N/A   Clear
4:53 PM 98.1 °F 21.9 °F 7% 29.65 in 10.0 mi WSW 6.9 mph - N/A   Clear
5:53 PM 97.0 °F 21.9 °F 7% 29.64 in 10.0 mi WSW 9.2 mph - N/A   Clear
6:53 PM 95.0 °F 21.0 °F 7% 29.63 in 10.0 mi West 4.6 mph - N/A   Clear
7:53 PM 91.9 °F 23.0 °F 8% 29.64 in 10.0 mi Calm Calm - N/A   Clear
8:53 PM 89.1 °F 25.0 °F 10% 29.65 in 10.0 mi Calm Calm - N/A   Clear
9:53 PM 88.0 °F 23.0 °F 9% 29.67 in 10.0 mi West 6.9 mph - N/A   Clear
10:53 PM 86.0 °F 21.0 °F 9% 29.68 in 10.0 mi NNW 3.5 mph - N/A   Clear
11:53 PM 82.9 °F 19.9 °F 10% 29.69 in 10.0 mi WSW 3.5 mph - N/A   Clear